Location: *
(50.3194°N, 7.1067°E)
Time: 20:58:00
(UTC+00:00)

H-2A R/B - Pass Details

Date: 22 September 2019
Orbit: 734 x 836 km, 98.3° (Epoch: 14 October)

Event Time Altitude Azimuth Distance (km) Brightness Sun altitude
Exits shadow 18:40:24 12° 135° (SE) 2,128 3.8 -11.9°
Maximum altitude 18:44:43 43° 66° (ENE) 1,060 2.4 -12.5°
Drops below altitude 10° 18:49:31 10° 357° (N) 2,325 4.8 -13.3°
Sets 18:51:58 0° 351° (N) 3,273 5.6 -13.6°
